STARLINK-33584 (62761 NORAD) Tracking and Keplerian Element Data

This shows tracking and keplerian element data for the satellite.

Feedback or suggestion? Click here.




ElementValue
Catalog62761
NameSTARLINK-33584
Epoch Orbit340
Epoch Day35.25001157
Epoch Year2025
RAAN18.7136
Inclination53.16
Eccentricity0.0001243
Argument of Perigee71.7463
Mean Anonmoly186.9776
Mean Motion15.78986373
Decay Rate-0.00948114
L11 62761U 25015D 25035.25001157 -.00948114 00000+0 -58414-2 0 9993
L22 62761 53.1600 18.7136 0001243 71.7463 186.9776 15.78986373 3401



Live tracking and technical data element details for STARLINK-33584 (NORAD 62761). STARLINK-33584 can be tracked NOW for your location showing map with azimuth and elevation plus other details from your city location.







IsCatalogInMostPopularTable: catalog: 62761, numindb: 4
Update: records affected: 1



GetName: 62761 STARLINK-33584

Hit Count: updated at: Sun, 09 Feb 2025 13:43:26 GMT